Regional Weather Roundup
Issued by NWS

Home | Current Version | Previous Version | Graphics & Text | Print | Product List | Glossary On
Versions: 1 2 3 4 5 6 7 8 9 10 11 12 13 14 15 16 17 18 19 20 21 22 23 24 25 26 27 28 29 30 31 32 33 34 35 36 37 38 39 40 41 42 43 44 45 46 47 48 49 50
000
ASUS43 KBIS 291110
RWRND

NORTH DAKOTA REGIONAL WEATHER ROUNDUP
NATIONAL WEATHER SERVICE BISMARCK ND
600 AM CDT SAT AUG 29 2015

NOTE: "FAIR" INDICATES FEW OR NO CLOUDS BELOW 12,000 FEET WITH NO
SIGNIFICANT WEATHER AND/OR OBSTRUCTIONS TO VISIBILITY.


NDZ001>003-009>011-017-291200-
NORTHWEST NORTH DAKOTA

CITY           SKY/WX    TMP DP  RH WIND       PRES   REMARKS
WILLISTON      CLOUDY    58  52  80 SW3       29.91F HAZE
MINOT          CLOUDY    61  52  72 SW5       29.88F HAZE
MINOT AFB      PTCLDY    55  55  97 CALM      29.87F
$$

NDZ018>021-031>035-040>046-291200-
SOUTHWEST NORTH DAKOTA

CITY           SKY/WX    TMP DP  RH WIND       PRES   REMARKS
BISMARCK       CLOUDY    60  59  96 CALM      29.93R
DICKINSON      CLOUDY    56  45  66 S7        29.95F HAZE
GARRISON         N/A     54  50  86 CALM      29.92S
HETTINGER ARPT CLOUDY    51  46  83 NW3       30.01S HAZE
$$

NDZ004>008-012>016-024-026-027-054-291200-
NORTHEAST NORTH DAKOTA

CITY           SKY/WX    TMP DP  RH WIND       PRES   REMARKS
GRAND FORKS    CLEAR     62  61  96 SE5       29.89S
GRND FRKS AFB  FOG       59  59 100 S3        29.90R VSB 1/4
DEVILS LAKE    MOCLDY    61  54  77 CALM      29.89S VSB<1/4
$$

NDZ022-023-025-028>030-036>039-047>053-291200-
SOUTHEAST NORTH DAKOTA

CITY           SKY/WX    TMP DP  RH WIND       PRES   REMARKS
FARGO          CLEAR     64  60  87 S9        29.93S
JAMESTOWN      CLEAR     62  61  96 S5        29.91S
$$




USA.gov is the U.S. government's official web portal to all federal, state and local government web resources and services.